Погода в Еланце

Украина / Николаевская область     47˚41′45″N   31˚51′14″E
темп.,
°C
ветер,
м/с
пор.,
м/с
влажн.,
%
обл.,
%
осадки,
мм/ч
давл.,
гПа
погр.,
м
6 декабря, вс
вс623:00−1˚в612790 0.0 1031459
02:00−2˚в612540 0.0 1031434
05:00−3˚в611500 0.0 1031416
08:00−3˚в712450 0.0 1031441
11:00в711360 0.0 1032542
14:00+1˚в711320 0.0 1030644
17:00−2˚в613420 0.0 1031449
20:00−3˚в614500 0.0 1031500
7 декабря, пн
пн723:00−4˚в712590 0.0 1031532
02:00−5˚в713620 0.0 1031509
05:00−6˚в713600 0.0 1030508
08:00−6˚в713600 0.0 1030570
11:00−3˚в8125626 0.0 1028715
14:00−3˚в8136858 0.0 1027618
17:00−2˚в8145799 0.0 1027726
20:00−2˚в8166888 0.0 1027670
8 декабря, вт
вт823:00−3˚в815672 0.0 1026615
02:00−4˚в714701 0.0 1026637
05:00−4˚в8127691 0.0 1025740
08:00−4˚в7117895 0.1 1025652
11:00−3˚в61080100 0.1 1025581
14:00−2˚всв71070100 0.1 1025528
17:00−2˚всв61170100 0.0 1025696
20:00−2˚в61172100 0.0 1025606
9 декабря, ср
ср923:00−2˚в6127699 0.0 1024558
02:00−2˚всв8127498 0.0 1024488
05:00−2˚всв71274100 0.1 1024467
08:00−2˚всв7127899 0.1 1024440
11:00−1˚в71177100 0.0 1024427
14:00в71179100 0.1 1023429
17:00в7138397 0.0 1023420
20:00+1˚в8138498 0.1 1023407
10 декабря, чт
чт1023:00+1˚в7128999 0.0 1023427
02:00+2˚в6129399 0.3 1024419
05:00+3˚вюв81393100 0.1 1023440
08:00+3˚вюв81493100 0.1 1023372
11:00+6˚вюв8128492 0.0 1024544
14:00+6˚вюв8118294 0.0 1023622
17:00+5˚вюв7128893 0.0 1023539
20:00+4˚вюв8138197 0.0 1023496